Location: Ahausen
(50.4985°N, 8.2722°E)
Time: 10:10:09
(UTC+00:00)

SPROUT - Visible Passes

Search period start: 29 June 2022 00:00
Search period end: 09 July 2022 00:00
Orbit: 588 x 601 km, 97.9° (Epoch: 28 June)

Date Brightness Start Highest point End Pass type
(mag) Time Alt. Az. Time Alt. Az. Time Alt. Az.
29 Jun ? 01:37:24 10° WSW 01:39:07 12° W 01:40:49 10° WNW visible
29 Jun ? 22:35:10 10° E 22:37:23 14° ENE 22:39:35 10° NNE visible
30 Jun ? 00:10:14 28° S 00:12:23 82° WSW 00:16:36 10° NNW visible
30 Jun ? 22:44:03 10° E 22:46:43 17° ENE 22:49:24 10° NNE visible
01 Jul ? 00:19:49 29° S 00:21:52 66° WSW 00:26:02 10° NNW visible
01 Jul ? 22:53:02 10° ESE 22:56:04 20° ENE 22:59:06 10° NNE visible
02 Jul ? 00:29:23 28° SSW 00:31:19 53° W 00:35:26 10° NNW visible
02 Jul ? 23:02:18 11° ESE 23:05:24 24° ENE 23:08:45 10° N visible
03 Jul ? 00:38:56 26° SSW 00:40:48 42° W 00:44:48 10° NNW visible
03 Jul ? 23:11:51 14° ESE 23:14:46 28° ENE 23:18:21 10° N visible
04 Jul ? 00:48:29 24° SW 00:50:16 34° W 00:54:07 10° NNW visible
04 Jul ? 23:21:24 16° ESE 23:24:06 34° ENE 23:27:54 10° N visible
05 Jul ? 00:58:02 21° SW 00:59:45 28° W 01:03:23 10° NW visible
05 Jul ? 23:30:56 19° SE 23:33:28 41° ENE 23:37:25 10° N visible
06 Jul ? 01:07:35 18° SW 01:09:14 23° W 01:12:37 10° NW visible
06 Jul ? 23:40:28 23° SE 23:42:50 50° ENE 23:46:53 10° N visible
07 Jul ? 01:17:06 16° WSW 01:18:43 19° W 01:21:45 10° NW visible
07 Jul ? 23:50:00 26° SE 23:52:11 62° ENE 23:56:20 10° N visible
08 Jul ? 01:26:38 13° WSW 01:28:12 16° W 01:30:46 10° NW visible
08 Jul ? 22:25:20 10° ENE 22:26:42 11° NE 22:28:04 10° NE visible
